AO-07 1 07530U 74089B 17088.91346207 -.00000049 00000-0 -27598-4 0 9999 2 07530 101.6218 059.1886 0012384 114.9707 308.3054 12.53626070938690 UO-11 1 14781U 84021B 17088.88176466 .00000194 00000-0 30266-4 0 9991 2 14781 097.7078 137.4754 0010045 098.8107 261.4245 14.82873551757596 LO-19 1 20442U 90005G 17088.81658097 .00000043 00000-0 31920-4 0 9990 2 20442 098.5706 026.1606 0012351 027.4012 332.7821 14.32853489420254 HUBBLE 1 20580U 90037B 17088.44297633 .00000887 00000-0 43953-4 0 9997 2 20580 028.4692 174.4341 0002910 039.5979 062.4411 15.08715220278147 MET-2/21 1 22782U 93055A 17088.91923010 .00000017 00000-0 23807-5 0 9995 2 22782 082.5460 086.4927 0021183 295.0633 126.3623 13.83797612190467 AO-27 1 22825U 93061C 17088.84666388 .00000023 00000-0 26646-4 0 9994 2 22825 098.8034 053.4922 0007984 196.1249 163.9680 14.29990322225797 IO-26 1 22826U 93061D 17088.47619555 .00000030 00000-0 28953-4 0 9999 2 22826 098.7976 053.2089 0008653 187.8971 172.2076 14.30318380226183 FO-29 1 24278U 96046B 17088.67318232 -.00000028 00000-0 71175-5 0 9991 2 24278 098.5754 342.4712 0350331 183.2266 176.6612 13.53074862018129 NOAA-15 1 25338U 98030A 17088.91593454 .00000034 00000-0 32997-4 0 9996 2 25338 098.7850 099.6585 0011681 078.7612 281.4880 14.25783261981446 GO-32 1 25397U 98043D 17088.84506986 .00000007 00000-0 22038-4 0 9996 2 25397 098.6031 032.8850 0000759 167.9277 192.1920 14.23618021972506 ISS 1 25544U 98067A 17088.88997985 .00002977 00000-0 51928-4 0 9991 2 25544 051.6423 073.5618 0007382 353.5324 091.3573 15.54284560049425 NO-44 1 26931U 01043C 17088.89004358 -.00000012 00000-0 27406-4 0 9997 2 26931 067.0504 295.7934 0007568 277.0266 082.9974 14.30452809808933 SO-50 1 27607U 02058C 17088.89733758 .00000147 00000-0 41980-4 0 9999 2 27607 064.5572 007.8525 0034132 134.9377 225.4503 14.75299985767412 CO-55 1 27844U 03031E 17088.91842733 .00000075 00000-0 53554-4 0 9991 2 27844 098.6919 099.0720 0009118 210.7961 149.2682 14.22024249713015 CO-57 1 27848U 03031J 17088.96714113 .00000059 00000-0 46983-4 0 9990 2 27848 098.7014 099.3446 0008863 220.5117 139.5402 14.21640540712919 RS-22 1 27939U 03042A 17088.97265264 .00000228 00000-0 49518-4 0 9997 2 27939 097.9260 236.3244 0014309 115.6223 355.3436 14.66539097721566 NOAA-18 1 28654U 05018A 17088.92197473 .00000027 00000-0 40340-4 0 9999 2 28654 099.1889 109.1752 0013341 295.5643 064.4148 14.12330511610973 CO-58 1 28895U 05043F 17088.92588277 .00000267 00000-0 60334-4 0 9991 2 28895 097.8553 254.9121 0017605 038.5804 321.6653 14.63363328608663 Falconsat-3 1 30776U 07006E 17088.46537172 .00006041 00000-0 19378-3 0 9997 2 30776 035.4354 212.1965 0003639 310.4913 049.5495 15.31732007556020 CO-65 1 32785U 08021C 17088.48173211 .00000521 00000-0 62634-4 0 9990 2 32785 097.5742 116.3654 0014680 074.8270 285.4570 14.87828943482979 AAUSAT2 1 32788U 08021F 17088.65652176 .00001426 00000-0 13956-3 0 9991 2 32788 097.5682 127.6049 0012996 043.2054 317.0184 14.93752434483800 DO-64 1 32789U 08021G 17088.69183373 .00003501 00000-0 25345-3 0 9995 2 32789 097.5685 148.5773 0013134 021.0264 339.1500 15.04571207484811 CO-66 1 32791U 08021J 17088.33854439 .00000696 00000-0 77270-4 0 9994 2 32791 097.5719 120.3432 0014870 062.6218 297.6512 14.90136959483174 RS-30 1 32953U 08025A 17088.92533194 .00000008 00000-0 -17198-4 0 9996 2 32953 082.4991 288.9501 0019703 098.2556 262.0759 12.43075483401570 PRISM 1 33493U 09002B 17088.88308109 .00002701 00000-0 24891-3 0 9991 2 33493 098.1790 327.9248 0015077 351.0567 009.0378 14.95540319443920 NOAA-19 1 33591U 09005A 17088.91494044 .00000114 00000-0 86860-4 0 9992 2 33591 099.0840 054.6526 0014694 132.1855 228.0566 14.12165650419206 TISAT-1 1 36799U 10035E 17088.91929269 .00000929 00000-0 10161-3 0 9996 2 36799 098.0506 210.0995 0011598 222.1863 137.8463 14.90287118363777 JUGNU 1 37839U 11058B 17088.46334106 .00000334 00000-0 36469-4 0 9998 2 37839 019.9605 213.8802 0019083 024.7920 040.6376 14.12576382282413 SRMSAT 1 37841U 11058D 17087.48627677 .00000333 00000-0 37836-4 0 9998 2 37841 019.9718 259.8280 0011801 275.0832 117.6598 14.10568641281781 AO-71 1 37854U 11061E 17088.81589863 .00003123 00000-0 17459-3 0 9996 2 37854 101.7102 282.0453 0168603 309.8262 048.8213 15.03760251294550 HRBE 1 37855U 11061F 17088.83741346 .00002286 00000-0 12793-3 0 9990 2 37855 101.7234 279.9340 0181500 315.8340 042.8498 15.02718544294402 ALMASAT-1 1 38078U 12006B 17088.94665004 .00047340 39634-5 56764-3 0 9992 2 38078 069.4406 345.0755 0319716 047.2573 315.5024 15.18401371272744 HORYU-2 1 38340U 12025D 17088.93810222 .00000449 00000-0 74417-4 0 9993 2 38340 098.3763 090.0729 0011645 177.5080 182.6188 14.75282997251194 RS-40 1 38735U 12041C 17088.90052636 .00000030 00000-0 14532-3 0 9990 2 38735 082.4808 013.6229 0016066 198.1263 161.9246 12.42573142211824 BEESAT-3 1 39134U 13015E 17088.87867116 .00003531 00000-0 18310-3 0 9996 2 39134 064.8676 122.3851 0032174 290.0541 069.7123 15.17463762217065 BEESAT-2 1 39136U 13015G 17088.89503188 .00002240 00000-0 12922-3 0 9995 2 39136 064.8692 131.9384 0029318 295.0275 064.7806 15.14816829216871 ZACUBE-1 1 39417U 13066B 17088.89142898 .00000489 00000-0 68346-4 0 9995 2 39417 097.6397 134.9399 0059859 167.9445 192.3217 14.80650771181045 TRITON-1 1 39427U 13066M 17088.95618765 .00000370 00000-0 67710-4 0 9997 2 39427 097.6432 109.6043 0113124 242.1810 116.7894 14.67408428179233 GOMX-1 1 39430U 13066Q 17088.95185467 .00000392 00000-0 81031-4 0 9995 2 39430 097.6649 094.0335 0150602 293.5199 065.0239 14.58819893178195 LO-74 1 39440U 13066AA 17088.89713708 .00000403 00000-0 63521-4 0 9991 2 39440 097.6378 124.7520 0080546 196.5593 163.2984 14.75394191179200 AO-73 1 39444U 13066AE 17088.90994633 .00000607 00000-0 81891-4 0 9991 2 39444 097.6411 135.9105 0059124 164.9363 195.3629 14.81369309179287 SPROUT 1 39770U 14029E 17088.85039047 .00002158 00000-0 25258-3 0 9993 2 39770 097.8699 189.0281 0008687 214.9638 145.1006 14.86071084154351 DUCHIFAT-1 1 40021U 14033M 17088.91239398 .00000982 00000-0 10822-3 0 9991 2 40021 097.9219 001.9536 0012455 196.6038 163.4773 14.89782632150793 NANOSATCBR1 1 40024U 14033Q 17088.74455584 .00000810 00000-0 91737-4 0 9997 2 40024 097.9184 000.7954 0011715 197.6003 162.4809 14.89122875150728 EO-79 1 40025U 14033R 17088.74927060 .00000675 00000-0 78993-4 0 9999 2 40025 097.9169 359.9566 0011870 200.4252 159.6491 14.88344535150678 DTUSAT-2 1 40030U 14033W 17088.73444564 .00000640 00000-0 75888-4 0 9999 2 40030 097.9139 359.1353 0011477 194.0428 166.0470 14.87969490150630 EO-80 1 40032U 14033Y 17088.90767570 .00000626 00000-0 74441-4 0 9993 2 40032 097.9144 359.3151 0011457 194.0640 166.0258 14.87903628150130 ANTELSAT 1 40034U 14033AA 17088.63827754 .00000450 00000-0 74990-4 0 9990 2 40034 097.8704 334.9877 0058779 187.3959 172.6389 14.73638988148676 VELOX-1 1 40057U 14034E 17088.83697232 .00001040 00000-0 15494-3 0 9993 2 40057 098.1855 187.8851 0009560 315.3873 044.6536 14.77043836148040 DAURIA DX 1 1 40071U 14037C 17088.81281987 .00000226 00000-0 36590-4 0 9992 2 40071 098.3302 196.7674 0006952 313.3896 046.6701 14.80980000147224 UKUBE-1 1 40074U 14037F 17088.90361439 .00000173 00000-0 28130-4 0 9998 2 40074 098.3378 200.3088 0002864 317.0180 043.0808 14.83417433147425 HODOYOSHI-1 1 40299U 14070B 17088.84926044 .00002091 00000-0 94201-4 0 9999 2 40299 097.4070 172.7907 0013601 019.0415 090.6917 15.22086927132872 CHUBUSAT-1 1 40300U 14070C 17088.80762269 .00001875 00000-0 88074-4 0 9995 2 40300 097.3997 170.1505 0020895 025.9263 089.8873 15.20670418132725 QSAT-EOS 1 40301U 14070D 17088.76915916 .00004688 00000-0 20147-3 0 9991 2 40301 097.3930 169.9611 0027965 020.2066 095.3862 15.22800878132740 FIREBIRD FU3 1 40377U 15003B 17088.75991854 .00005318 00000-0 23109-3 0 9997 2 40377 099.1171 256.9274 0136766 265.3763 093.1832 15.14788876118974 FIREBIRD FU4 1 40378U 15003C 17088.95141258 .00005453 00000-0 23650-3 0 9996 2 40378 099.1174 257.1883 0136976 264.6564 093.9022 15.14810599119003 GRIFEX 1 40379U 15003D 17088.94353567 .00004100 00000-0 18869-3 0 9998 2 40379 099.1185 255.2896 0142354 271.3334 087.1588 15.12511953118894 NO-84 1 40654U 15025D 17089.47022848 .00014524 00000-0 27004-3 0 04089 2 40654 054.9922 228.0871 0188894 068.4743 293.6230 15.32054280067828 NO-83 1 40655U 15025E 17089.37999799 .00029027 00000-0 44803-3 0 04504 2 40655 054.9812 209.0381 0159799 079.0841 282.8099 15.40671213068061 DEORBITSAIL 1 40719U 15032E 17088.94158235 .00000828 00000-0 12751-3 0 9990 2 40719 097.9893 343.6551 0017721 041.5913 318.6641 14.75959520092632 NUDT-PHONESAT 1 40900U 15049B 17088.93332917 .00004854 00000-0 23521-3 0 9990 2 40900 097.4446 098.0015 0015578 136.9170 223.3286 15.18897234084427 XW-2A 1 40903U 15049E 17088.90336743 .00004723 00000-0 12701-3 0 9994 2 40903 097.4280 113.6221 0014965 183.7781 176.3353 15.38286544085450 XW-2C 1 40906U 15049H 17088.95399405 .00001628 00000-0 92058-4 0 9991 2 40906 097.4560 096.0350 0016735 125.4064 234.8733 15.14356262084242 XW-2D 1 40907U 15049J 17088.94249558 .00001740 00000-0 97950-4 0 9995 2 40907 097.4528 095.8068 0016125 123.6858 236.5914 15.14447522084244 LILACSAT-2 1 40908U 15049K 17088.92806390 .00000922 00000-0 55684-4 0 9996 2 40908 097.4630 095.6401 0017655 121.8350 238.4603 15.13008542084187 XW-2F 1 40910U 15049M 17088.92268515 .00002712 00000-0 14732-3 0 9997 2 40910 097.4548 096.3477 0017104 122.0757 238.2139 15.15242511084272 XW-2B 1 40911U 15049N 17088.94672188 .00001703 00000-0 96040-4 0 9997 2 40911 097.4573 096.1461 0016021 123.9496 236.3261 15.14414053084141 DCBB 1 40912U 15049P 17088.83220229 .00003689 00000-0 18770-3 0 9999 2 40912 097.4517 097.8706 0017898 116.8916 006.3919 15.17311035084257 TW-1C 1 40926U 15051B 17088.90899685 .00015064 00000-0 36133-3 0 9996 2 40926 097.2391 129.1110 0014623 098.4973 025.6017 15.41368210084706 TW-1A 1 40928U 15051D 17088.86463227 .00007660 00000-0 22401-3 0 9998 2 40928 097.2356 126.0997 0015357 122.3508 358.0572 15.35427080084527 IO-86 1 40931U 15052B 17077.52885591 .00001723 00000-0 15157-3 0 9990 2 40931 006.0031 159.0641 0013752 039.8380 320.2756 14.76517526079548 GomX-3 1 40949U 98067HA 16292.18357804 .08527750 12374-4 77882-3 0 9992 2 40949 51.6055 106.7696 0006699 286.1344 73.8944 16.38002265 59645 LQSat 1 40958U 15057A 17088.83606794 .00000079 00000-0 20191-4 0 9994 2 40958 097.9830 165.5228 0016642 323.6238 036.3817 14.72950698079431 AO-85 1 40967U 15058D 17089.33814066 .00000306 00000-0 54735-4 0 04397 2 40967 064.7731 098.0353 0173020 107.1795 254.8333 14.75356810065488 ATHENOXAT-1 1 41168U 15077C 17088.09076539 .00003102 00000-0 13990-3 0 9994 2 41168 014.9890 034.4352 0012634 345.6668 125.6615 15.11268848070904 ChubuSat-2 1 41338U 16012B 17087.88449947 .00000663 00000-0 45610-4 0 9990 2 41338 031.0030 262.2475 0014043 344.1000 015.9193 14.99679402060926 ChubuSat-3 1 41339U 16012C 17088.48932419 .00000474 00000-0 30515-4 0 9997 2 41339 031.0127 257.6823 0013847 355.1074 004.9583 14.99889162060997 Horyu-4 1 41340U 16012D 17085.70254075 .00000852 00000-0 59244-4 0 9996 2 41340 031.0052 273.4115 0014352 336.1926 023.8044 15.00489010060615 OUFTI-1 1 41458U 16025C 17088.88693785 .00002665 00000-0 14669-3 0 9992 2 41458 098.1963 121.9101 0176024 193.9512 165.6821 15.02766031050673 e-st@r-II 1 41459U 16025D 17088.90037536 .00003456 00000-0 18899-3 0 9990 2 41459 098.1940 121.8854 0176783 194.4616 165.1523 15.02630489050666 AAUSAT4 1 41460U 16025E 17088.87430983 .00004124 00000-0 22606-3 0 9995 2 41460 098.1879 121.9245 0169124 192.6430 167.0525 15.03368479050671 MinXSS 1 41474U 98067HU 17088.89073877 .00211805 00000-0 80147-3 0 9993 2 41474 051.6471 043.7014 0004209 120.1964 239.9458 15.86540733049761 CADRE 1 41475U 98067HV 17003.74787607 .12518598 12537-4 55989-3 0 9998 2 41475 51.6110 110.0165 0004040 312.3134 47.7551 16.43344525 36494 NODES 1 1 41477U 98067HX 17088.90472707 .00075064 00000-0 53294-3 0 9991 2 41477 051.6346 052.7255 0003829 107.7686 252.3731 15.73221382049553 NODES 2 1 41478U 98067HY 17088.86307370 .00072924 00000-0 52442-3 0 9996 2 41478 051.6339 053.1965 0003648 107.5201 252.6196 15.72933521049540 LO-87 1 41557U 16033B 17088.91364286 .00003550 00000-0 13770-3 0 9992 2 41557 097.4672 168.4316 0012807 289.0390 070.9461 15.26715956046337 NuSat2 1 41558U 16033C 17088.87463495 .00003611 00000-0 14056-3 0 9996 2 41558 097.4698 168.4329 0012288 287.7842 072.2056 15.26593964046327 Lapan A3 1 41603U 16040E 17088.81709882 -.00000020 00000-0 23353-5 0 9996 2 41603 097.4703 151.7096 0012851 000.6527 109.7315 15.19292097042605 Swayam 1 41607U 16040J 17088.90070346 .00004102 00000-0 19091-3 0 9992 2 41607 097.4688 151.9413 0014249 000.5386 359.5862 15.20413759042559 Pratham 1 41783U 16059A 17088.81529136 .00000154 00000-0 39401-4 0 9994 2 41783 098.1761 150.9735 0034620 051.3636 309.0656 14.62816591026994 AlSat 1N 1 41789U 16059G 17088.80094168 .00000279 00000-0 62122-4 0 9995 2 41789 098.1766 151.3057 0029110 047.8312 312.5356 14.64022181026998 ScatSat 1 41790U 16059H 17088.77409086 .00000059 00000-0 26125-4 0 9991 2 41790 098.0753 142.1414 0011899 037.8757 322.3273 14.50099350026755 TY-1 1 41844U 16066D 17088.91592471 .00002199 00000-0 99596-4 0 9995 2 41844 097.4056 097.2773 0017038 150.4296 271.9086 15.21810600021285 CAS-2T 1 41845U 16066E 17088.92083254 -.00000066 00000-0 00000-0 0 9991 2 41845 098.7805 102.6476 0368131 123.4091 240.2898 14.37714433020102 Pegasus-1 1 41846U 16066F 17088.72393739 -.00000066 00000-0 00000-0 0 9992 2 41846 098.7834 102.3053 0370889 124.9377 238.7244 14.36915461020064 STARS-C 1 41895U 98067KR 17088.95662952 .00032409 00000-0 43253-3 0 9993 2 41895 051.6406 071.9441 0006074 033.2593 326.8748 15.57765161015625 Tancredo 1 1 41931U 98067KT 17088.92842115 .00063635 00000-0 77233-3 0 9992 2 41931 051.6433 071.7442 0007627 003.4817 356.6340 15.59964074011191 ITF-2 1 41932U 98067KU 17088.93484852 .00020467 00000-0 28608-3 0 9992 2 41932 051.6449 072.5423 0006744 355.9826 004.1177 15.56795292011184 AOBA-V3LOX3 1 41935U 98067KX 17088.93541316 .00022500 00000-0 31289-3 0 9993 2 41935 051.6418 072.5500 0005864 348.2771 011.8836 15.56874253011288 OSNSAT 1 41939U 98067KZ 17088.89151395 .00047032 00000-0 60274-3 0 9999 2 41939 051.6399 072.2518 0008414 352.1012 008.1679 15.58650521010535 EO-88 1 42017U 17008BX 17088.92505911 .00003720 00000-0 16304-3 0 9995 2 42017 097.5026 150.5122 0008396 131.6082 228.5803 15.22599348006437 /EX
